Location: Aero Crafter Incorporated Heliport
(33.1248°N, 96.5222°W)
Time: 07:15:56
(UTC+00:00)

Cosmos 1975 Rocket - Pass Details

Date: 18 November 2025
Orbit: 598 x 626 km, 82.5° (Epoch: 08 December)

Event Time Altitude Azimuth Distance (km) Brightness Sun altitude
Rises 12:23:57 0° 179° (S) 2,833 6.7 -7.9°
Reaches altitude 10° 12:26:10 10° 177° (S) 1,932 5.9 -7.5°
Maximum altitude 12:30:24 68° 94° (E) 646 3.4 -6.6°
Drops below altitude 10° 12:34:39 10° 12° (NNE) 1,940 5.5 -5.8°
Sets 12:36:52 0° 10° (N) 2,846 6.4 -5.3°
